Location: W�rzburg
(49.7529°N, 9.8822°E)
Time: 18:32:55
(UTC+01:00)

ISS - Pass Details

Date: 11 November 2017
Orbit: 402 x 407 km, 51.6° (Epoch: 20 November)

Event Time Altitude Azimuth Distance (km) Brightness Sun altitude
Exits shadow 05:10:04 50° 56° (NE) 520 -3.1 -22.0°
Drops below altitude 10° 05:12:44 10° 88° (E) 1,457 0.1 -21.5°
Sets 05:14:50 0° 92° (E) 2,316 1.6 -21.2°
